When you browse on this site, cookies collect data to enhance your experience and personalize the content and advertising you see.
Visit our Privacy Policy to learn more. By continuing to use the site, you agree to this use of cookies and data.
  • In Sweden
  • List of Countries
  • For 7 days
  • Water Temperature
  • Weather Map
  • Weather Widgets
  • user-avatar
    Login

    Hourly Weather Aguilares

    Today, 6 June, Saturday

    Time Temperature Precipitation Wind Pressure Humidity
    00:00 +22°C° 0.1 mm 0 mps 729 mmHg 98%
    01:00 +22°C° 0 mm 0 mps 729 mmHg 98%
    02:00 +22°C° 0 mm 0 mps 728 mmHg 98%
    03:00 +22°C° 0 mm 0 mps 728 mmHg 98%
    04:00 +22°C° 0 mm 0 mps 728 mmHg 98%
    05:00 +22°C° 0 mm 0 mps 728 mmHg 98%
    06:00 +22°C° 0 mm 0 mps 728 mmHg 98%
    07:00 +23°C° 0 mm 0 mps 729 mmHg 95%
    08:00 +24°C° 0 mm 0 mps 729 mmHg 92%
    09:00 +26°C° 0 mm 0 mps 730 mmHg 88%
    10:00 +26°C° 0.8 mm 0 mps 730 mmHg 87%
    11:00 +29°C° 0.8 mm 1 mps 730 mmHg 86%
    12:00 +29°C° 0.8 mm 1 mps 730 mmHg 85%
    13:00 +29°C° 1.8 mm 1 mps 729 mmHg 87%
    14:00 +29°C° 1.8 mm 1 mps 729 mmHg 88%
    15:00 +29°C° 1.8 mm 1 mps 728 mmHg 89%
    16:00 +28°C° 0.7 mm 1 mps 728 mmHg 91%
    17:00 +27°C° 0.7 mm 1 mps 728 mmHg 93%
    18:00 +24°C° 0.7 mm 0 mps 728 mmHg 95%
    19:00 +24°C° 0 mm 0 mps 729 mmHg 96%
    20:00 +23°C° 0 mm 0 mps 729 mmHg 96%
    21:00 +23°C° 0 mm 0 mps 730 mmHg 97%
    22:00 +23°C° 0 mm 0 mps 730 mmHg 97%
    23:00 +23°C° 0 mm 0 mps 730 mmHg 97%

    Tomorrow, 7 June, Sunday

    Time Temperature Precipitation Wind Pressure Humidity
    00:00 +23°C° 0 mm 0 mps 730 mmHg 97%
    01:00 +22°C° 0 mm 0 mps 729 mmHg 97%
    02:00 +22°C° 0 mm 0 mps 729 mmHg 98%
    03:00 +22°C° 0 mm 0 mps 729 mmHg 98%
    04:00 +22°C° 0 mm 0 mps 729 mmHg 98%
    05:00 +22°C° 0 mm 0 mps 729 mmHg 98%
    06:00 +22°C° 0 mm 0 mps 729 mmHg 98%
    07:00 +24°C° 0 mm 0 mps 729 mmHg 94%
    08:00 +25°C° 0 mm 0 mps 729 mmHg 89%
    09:00 +26°C° 0 mm 0 mps 730 mmHg 85%
    10:00 +27°C° 0 mm 0 mps 729 mmHg 81%
    11:00 +28°C° 0 mm 0 mps 729 mmHg 78%
    12:00 +31°C° 0 mm 1 mps 729 mmHg 74%
    13:00 +31°C° 0 mm 1 mps 728 mmHg 73%
    14:00 +31°C° 0 mm 1 mps 728 mmHg 73%
    15:00 +31°C° 0 mm 1 mps 727 mmHg 73%
    16:00 +30°C° 0.2 mm 1 mps 727 mmHg 79%
    17:00 +29°C° 0.2 mm 1 mps 727 mmHg 84%
    18:00 +28°C° 0.2 mm 1 mps 727 mmHg 90%
    19:00 +27°C° 0.1 mm 1 mps 728 mmHg 92%
    20:00 +27°C° 0.1 mm 1 mps 728 mmHg 94%
    21:00 +26°C° 0.1 mm 1 mps 729 mmHg 96%
    22:00 +26°C° 0.1 mm 1 mps 729 mmHg 96%
    23:00 +24°C° 0.1 mm 0 mps 729 mmHg 96%

    Day after tomorrow, 8 June, Monday

    Time Temperature Precipitation Wind Pressure Humidity
    00:00 +24°C° 0.1 mm 0 mps 729 mmHg 96%
    01:00 +23°C° 0 mm 0 mps 729 mmHg 97%
    02:00 +23°C° 0 mm 0 mps 728 mmHg 97%
    03:00 +23°C° 0 mm 0 mps 728 mmHg 98%
    04:00 +23°C° 0 mm 0 mps 728 mmHg 98%
    05:00 +23°C° 0 mm 0 mps 728 mmHg 97%
    06:00 +23°C° 0 mm 0 mps 728 mmHg 97%
    07:00 +25°C° 0 mm 0 mps 729 mmHg 91%
    08:00 +27°C° 0 mm 0 mps 729 mmHg 84%
    09:00 +29°C° 0 mm 0 mps 730 mmHg 77%
    10:00 +30°C° 0 mm 0 mps 729 mmHg 72%
    11:00 +31°C° 0 mm 0 mps 729 mmHg 68%
    12:00 +32°C° 0 mm 0 mps 729 mmHg 63%
    13:00 +33°C° 1.3 mm 1 mps 728 mmHg 68%
    14:00 +33°C° 1.3 mm 1 mps 728 mmHg 72%
    15:00 +32°C° 1.3 mm 1 mps 727 mmHg 77%
    16:00 +31°C° 0.9 mm 1 mps 727 mmHg 82%
    17:00 +29°C° 0.9 mm 1 mps 727 mmHg 87%
    18:00 +28°C° 0.9 mm 1 mps 727 mmHg 92%
    19:00 +28°C° 0.4 mm 1 mps 727 mmHg 94%
    20:00 +27°C° 0.4 mm 1 mps 728 mmHg 96%
    21:00 +24°C° 0.4 mm 0 mps 729 mmHg 97%
    22:00 +24°C° 0.2 mm 0 mps 729 mmHg 97%
    23:00 +24°C° 0.2 mm 0 mps 729 mmHg 98%

    9 June, Tuesday

    Time Temperature Precipitation Wind Pressure Humidity
    00:00 +23°C° 0.2 mm 0 mps 729 mmHg 98%
    01:00 +23°C° 0 mm 0 mps 728 mmHg 98%
    02:00 +23°C° 0 mm 0 mps 728 mmHg 98%
    03:00 +23°C° 0 mm 0 mps 728 mmHg 98%
    04:00 +23°C° 0 mm 0 mps 728 mmHg 98%
    05:00 +23°C° 0 mm 0 mps 728 mmHg 98%
    06:00 +23°C° 0 mm 0 mps 728 mmHg 97%
    07:00 +25°C° 0 mm 0 mps 728 mmHg 91%
    08:00 +27°C° 0 mm 0 mps 729 mmHg 84%
    09:00 +29°C° 0 mm 0 mps 729 mmHg 78%
    10:00 +30°C° 0.1 mm 0 mps 729 mmHg 74%
    11:00 +32°C° 0.1 mm 1 mps 729 mmHg 70%
    12:00 +33°C° 0.1 mm 1 mps 728 mmHg 67%
    13:00 +33°C° 0.7 mm 1 mps 728 mmHg 71%
    14:00 +32°C° 0.7 mm 1 mps 727 mmHg 75%
    15:00 +32°C° 0.7 mm 1 mps 727 mmHg 79%
    16:00 +30°C° 1 mm 1 mps 727 mmHg 84%
    17:00 +29°C° 1 mm 1 mps 727 mmHg 89%
    18:00 +28°C° 1 mm 1 mps 727 mmHg 95%
    19:00 +27°C° 0.8 mm 1 mps 727 mmHg 96%
    20:00 +27°C° 0.8 mm 1 mps 728 mmHg 97%
    21:00 +26°C° 0.8 mm 1 mps 728 mmHg 97%
    22:00 +24°C° 0.7 mm 0 mps 728 mmHg 98%
    23:00 +24°C° 0.7 mm 0 mps 728 mmHg 98%

    10 June, Wednesday

    Time Temperature Precipitation Wind Pressure Humidity
    00:00 +23°C° 0.7 mm 0 mps 728 mmHg 98%
    01:00 +23°C° 0.4 mm 0 mps 728 mmHg 98%
    02:00 +23°C° 0.4 mm 0 mps 728 mmHg 98%
    03:00 +23°C° 0.4 mm 0 mps 727 mmHg 98%
    04:00 +23°C° 0.2 mm 0 mps 727 mmHg 98%
    05:00 +23°C° 0.2 mm 0 mps 727 mmHg 98%
    06:00 +23°C° 0.2 mm 0 mps 728 mmHg 98%
    07:00 +25°C° 0 mm 0 mps 728 mmHg 93%
    08:00 +26°C° 0 mm 0 mps 728 mmHg 88%
    09:00 +27°C° 0 mm 0 mps 729 mmHg 83%
    10:00 +30°C° 0.5 mm 1 mps 729 mmHg 80%
    11:00 +31°C° 0.5 mm 1 mps 728 mmHg 77%
    12:00 +32°C° 0.5 mm 1 mps 728 mmHg 74%
    13:00 +32°C° 1 mm 1 mps 728 mmHg 77%
    14:00 +31°C° 1 mm 1 mps 727 mmHg 79%
    15:00 +31°C° 1 mm 1 mps 727 mmHg 82%
    16:00 +30°C° 2.8 mm 1 mps 727 mmHg 86%
    17:00 +28°C° 2.8 mm 1 mps 727 mmHg 90%
    18:00 +27°C° 2.8 mm 1 mps 727 mmHg 94%
    19:00 +27°C° 0.9 mm 1 mps 727 mmHg 95%
    20:00 +26°C° 0.9 mm 1 mps 728 mmHg 95%
    21:00 +26°C° 0.9 mm 1 mps 728 mmHg 96%
    22:00 +25°C° 1.5 mm 1 mps 728 mmHg 96%
    23:00 +25°C° 1.5 mm 1 mps 728 mmHg 97%

    11 June, Thursday

    Time Temperature Precipitation Wind Pressure Humidity
    00:00 +25°C° 1.5 mm 1 mps 728 mmHg 97%
    01:00 +23°C° 0.5 mm 0 mps 728 mmHg 97%
    02:00 +23°C° 0.5 mm 0 mps 728 mmHg 97%
    03:00 +22°C° 0.5 mm 0 mps 727 mmHg 97%
    04:00 +22°C° 0.4 mm 0 mps 728 mmHg 97%
    05:00 +22°C° 0.4 mm 0 mps 728 mmHg 97%
    06:00 +22°C° 0.4 mm 0 mps 728 mmHg 97%
    07:00 +24°C° 0 mm 0 mps 729 mmHg 93%
    08:00 +25°C° 0 mm 0 mps 729 mmHg 88%
    09:00 +27°C° 0 mm 0 mps 729 mmHg 84%
    10:00 +28°C° 0 mm 0 mps 729 mmHg 77%
    11:00 +29°C° 0 mm 0 mps 728 mmHg 71%
    12:00 +33°C° 0 mm 1 mps 728 mmHg 64%
    13:00 +32°C° 0.8 mm 1 mps 728 mmHg 69%
    14:00 +32°C° 0.8 mm 1 mps 727 mmHg 73%
    15:00 +31°C° 0.8 mm 1 mps 727 mmHg 77%
    16:00 +30°C° 1.1 mm 1 mps 727 mmHg 83%
    17:00 +29°C° 1.1 mm 1 mps 727 mmHg 88%
    18:00 +27°C° 1.1 mm 1 mps 727 mmHg 93%
    19:00 +27°C° 1.6 mm 1 mps 728 mmHg 94%
    20:00 +26°C° 1.6 mm 1 mps 728 mmHg 94%
    21:00 +25°C° 1.6 mm 1 mps 729 mmHg 95%
    22:00 +25°C° 1.8 mm 1 mps 729 mmHg 95%
    23:00 +25°C° 1.8 mm 1 mps 729 mmHg 96%
    Show more